Retour au catalogue

COSMOS 1375 DEB

ActifLEO
NORAD 17801·DEBRIS·🇷🇺 Russia

Lancé Jun 6, 1982 depuis Plesetsk Cosmodrome

Loading…

Prochains Passages (prochaines 24 heures)

TLE

FraisSource: Space-Track

Époque: Sep 14, 2026, 09:37 UTC

1 17801U 82055AT  26257.40137358  .00003034  00000-0  10137-2 0  9994
2 17801  65.8230  37.9215 0026090 193.7747 166.2640 14.38689789 98404

Suivez COSMOS 1375 DEB en temps réel avec AllMySat

Download on the App Store